EN

Hourly Weather Dzibice

Today, 26 October, Monday

Time Temperature Precipitation Wind Pressure Humidity
00:00 +10°C° 0 mm 2 mps 729 mmHg 94%
01:00 +9°C° 0 mm 2 mps 729 mmHg 94%
02:00 +9°C° 0 mm 2 mps 729 mmHg 93%
03:00 +9°C° 0 mm 2 mps 729 mmHg 92%
04:00 +9°C° 0 mm 2 mps 728 mmHg 92%
05:00 +9°C° 0 mm 2 mps 728 mmHg 92%
06:00 +9°C° 0 mm 2 mps 728 mmHg 91%
07:00 +9°C° 0 mm 2 mps 728 mmHg 91%
08:00 +12°C° 0 mm 2 mps 728 mmHg 83%
09:00 +14°C° 0 mm 2 mps 728 mmHg 75%
10:00 +16°C° 0 mm 3 mps 728 mmHg 67%
11:00 +16°C° 0 mm 3 mps 728 mmHg 63%
12:00 +17°C° 0 mm 3 mps 728 mmHg 59%
13:00 +18°C° 0 mm 3 mps 728 mmHg 55%
14:00 +17°C° 0 mm 3 mps 727 mmHg 59%
15:00 +16°C° 0 mm 3 mps 727 mmHg 63%
16:00 +16°C° 0 mm 3 mps 727 mmHg 66%
17:00 +15°C° 0 mm 2 mps 727 mmHg 68%
18:00 +15°C° 0 mm 2 mps 727 mmHg 70%
19:00 +15°C° 0 mm 2 mps 727 mmHg 72%
20:00 +14°C° 0 mm 2 mps 728 mmHg 73%
21:00 +14°C° 0 mm 2 mps 728 mmHg 74%
22:00 +14°C° 0 mm 2 mps 728 mmHg 75%
23:00 +14°C° 0 mm 2 mps 728 mmHg 76%

Tomorrow, 27 October, Tuesday

Time Temperature Precipitation Wind Pressure Humidity
00:00 +13°C° 0 mm 2 mps 728 mmHg 78%
01:00 +13°C° 0 mm 2 mps 728 mmHg 79%
02:00 +13°C° 0 mm 2 mps 728 mmHg 80%
03:00 +13°C° 0 mm 2 mps 728 mmHg 81%
04:00 +11°C° 0 mm 3 mps 728 mmHg 83%
05:00 +11°C° 0 mm 3 mps 728 mmHg 82%
06:00 +11°C° 0 mm 3 mps 728 mmHg 82%
07:00 +11°C° 0 mm 3 mps 728 mmHg 81%
08:00 +13°C° 0 mm 3 mps 729 mmHg 75%
09:00 +14°C° 0 mm 4 mps 729 mmHg 68%
10:00 +17°C° 0 mm 4 mps 729 mmHg 61%
11:00 +18°C° 0 mm 4 mps 729 mmHg 58%
12:00 +18°C° 0 mm 4 mps 729 mmHg 55%
13:00 +19°C° 0 mm 5 mps 729 mmHg 51%
14:00 +18°C° 0 mm 4 mps 729 mmHg 55%
15:00 +18°C° 0 mm 3 mps 729 mmHg 59%
16:00 +17°C° 0 mm 2 mps 729 mmHg 63%
17:00 +16°C° 0 mm 2 mps 729 mmHg 66%
18:00 +15°C° 0 mm 2 mps 730 mmHg 69%
19:00 +14°C° 0 mm 2 mps 730 mmHg 73%
20:00 +14°C° 0 mm 2 mps 730 mmHg 75%
21:00 +14°C° 0 mm 2 mps 731 mmHg 78%
22:00 +12°C° 0 mm 3 mps 731 mmHg 80%
23:00 +13°C° 0 mm 2 mps 731 mmHg 85%

Day after tomorrow, 28 October, Wednesday

Time Temperature Precipitation Wind Pressure Humidity
00:00 +12°C° 0 mm 2 mps 731 mmHg 89%
01:00 +10°C° 0 mm 2 mps 731 mmHg 93%
02:00 +11°C° 0 mm 1 mps 732 mmHg 94%
03:00 +10°C° 0 mm 1 mps 732 mmHg 94%
04:00 +9°C° 0 mm 0 mps 732 mmHg 95%
05:00 +9°C° 0 mm 0 mps 732 mmHg 94%
06:00 +9°C° 0 mm 0 mps 732 mmHg 93%
07:00 +9°C° 0 mm 0 mps 732 mmHg 92%
08:00 +11°C° 0 mm 1 mps 733 mmHg 87%
09:00 +12°C° 0 mm 1 mps 733 mmHg 82%
10:00 +13°C° 0 mm 2 mps 733 mmHg 77%
11:00 +14°C° 0 mm 2 mps 733 mmHg 75%
12:00 +15°C° 0 mm 2 mps 732 mmHg 73%
13:00 +15°C° 0 mm 2 mps 732 mmHg 70%
14:00 +15°C° 0 mm 2 mps 732 mmHg 73%
15:00 +14°C° 0 mm 2 mps 732 mmHg 75%
16:00 +14°C° 0 mm 1 mps 732 mmHg 78%
17:00 +14°C° 0 mm 1 mps 732 mmHg 80%
18:00 +13°C° 0 mm 1 mps 732 mmHg 82%
19:00 +13°C° 0 mm 2 mps 732 mmHg 83%
20:00 +12°C° 0 mm 2 mps 733 mmHg 85%
21:00 +12°C° 0 mm 2 mps 733 mmHg 86%
22:00 +12°C° 0 mm 2 mps 733 mmHg 87%
23:00 +10°C° 0 mm 2 mps 733 mmHg 87%

29 October, Thursday

Time Temperature Precipitation Wind Pressure Humidity
00:00 +10°C° 0 mm 3 mps 733 mmHg 87%
01:00 +10°C° 0 mm 3 mps 733 mmHg 86%
02:00 +9°C° 0 mm 3 mps 733 mmHg 85%
03:00 +9°C° 0 mm 3 mps 733 mmHg 84%
04:00 +9°C° 0 mm 3 mps 733 mmHg 82%
05:00 +9°C° 0 mm 3 mps 733 mmHg 83%
06:00 +9°C° 0 mm 3 mps 733 mmHg 84%
07:00 +9°C° 0 mm 3 mps 734 mmHg 85%
08:00 +10°C° 0 mm 3 mps 734 mmHg 79%
09:00 +12°C° 0 mm 3 mps 734 mmHg 72%
10:00 +13°C° 0 mm 3 mps 734 mmHg 65%
11:00 +14°C° 0 mm 4 mps 734 mmHg 62%
12:00 +14°C° 0 mm 4 mps 734 mmHg 59%
13:00 +15°C° 0 mm 5 mps 734 mmHg 56%
14:00 +14°C° 0 mm 4 mps 734 mmHg 60%
15:00 +13°C° 0 mm 4 mps 735 mmHg 63%
16:00 +12°C° 0 mm 3 mps 735 mmHg 67%
17:00 +12°C° 0 mm 3 mps 735 mmHg 70%
18:00 +11°C° 0 mm 3 mps 736 mmHg 74%
19:00 +11°C° 0 mm 3 mps 736 mmHg 77%
20:00 +10°C° 0 mm 3 mps 736 mmHg 78%
21:00 +10°C° 0 mm 3 mps 737 mmHg 79%
22:00 +9°C° 0 mm 3 mps 737 mmHg 80%
23:00 +9°C° 0 mm 3 mps 737 mmHg 81%

30 October, Friday

Time Temperature Precipitation Wind Pressure Humidity
00:00 +9°C° 0 mm 3 mps 737 mmHg 81%
01:00 +9°C° 0 mm 3 mps 737 mmHg 82%
02:00 +9°C° 0 mm 3 mps 737 mmHg 82%
03:00 +7°C° 0 mm 4 mps 737 mmHg 82%
04:00 +7°C° 0 mm 4 mps 737 mmHg 83%
05:00 +8°C° 0 mm 4 mps 737 mmHg 82%
06:00 +8°C° 0 mm 4 mps 737 mmHg 81%
07:00 +8°C° 0 mm 4 mps 737 mmHg 79%
08:00 +9°C° 0 mm 5 mps 737 mmHg 76%
09:00 +10°C° 0 mm 5 mps 738 mmHg 73%
10:00 +11°C° 0 mm 6 mps 738 mmHg 69%
11:00 +12°C° 0 mm 5 mps 738 mmHg 69%
12:00 +12°C° 0 mm 5 mps 738 mmHg 69%
13:00 +12°C° 0 mm 5 mps 737 mmHg 68%
14:00 +12°C° 0 mm 5 mps 737 mmHg 69%
15:00 +12°C° 0 mm 4 mps 737 mmHg 70%
16:00 +12°C° 0 mm 4 mps 737 mmHg 70%
17:00 +12°C° 0 mm 4 mps 737 mmHg 70%
18:00 +12°C° 0 mm 4 mps 738 mmHg 70%
19:00 +12°C° 0 mm 5 mps 738 mmHg 70%
20:00 +11°C° 0 mm 4 mps 738 mmHg 71%
21:00 +11°C° 0 mm 4 mps 738 mmHg 71%
22:00 +11°C° 0 mm 3 mps 738 mmHg 72%
23:00 +10°C° 0 mm 3 mps 738 mmHg 73%

31 October, Saturday

Time Temperature Precipitation Wind Pressure Humidity
00:00 +10°C° 0 mm 3 mps 738 mmHg 74%
01:00 +10°C° 0 mm 3 mps 738 mmHg 74%
02:00 +9°C° 0 mm 3 mps 738 mmHg 75%
03:00 +9°C° 0 mm 3 mps 738 mmHg 76%
04:00 +9°C° 0 mm 3 mps 738 mmHg 76%
05:00 +9°C° 0 mm 2 mps 738 mmHg 76%
06:00 +9°C° 0 mm 2 mps 737 mmHg 76%
07:00 +8°C° 0 mm 2 mps 737 mmHg 76%
Show more